(329178) = 2001 DJ55 = 2012 DP21

Discovered at Kitt Peak on 2001-02-16 by Spacewatch.

Orbit

Orbit type: Main Belt

Note: WebGL enabled browser required.

epoch2023-02-25.0
epoch JD2460000.5
perihelion date2022-08-17.19659
perihelion JD2459808.69659
argument of perihelion (°)106.66314
ascending node (°)1.45161
inclination (°)1.26322
eccentricity0.1450167
perihelion distance (AU)2.0205137
Tisserand w.r.t. Jupiter3.5
ΔV w.r.t. Earth (km/sec)8.9
semimajor axis (AU)2.3632199
mean anomaly (°)52.03601
mean daily motion (°/day)0.27129870
aphelion distance (AU)2.706
period (years)3.63
P-vector [x]-0.31091521
P-vector [y]0.86339317
P-vector [z]0.39734614
Q-vector [x]-0.95043749
Q-vector [y]-0.28268609
Q-vector [z]-0.12944943
absolute magnitude17.92
phase slope0.15
uncertainty0
referenceMPO 745323
observations used222
oppositions13
arc length (days)9641
first opposition used1996
last opposition used2023
residual rms (arc-secs)0.79
perturbers coarse indicatorM-v
perturbers precise indicator003Ek
first observation date used1996-12-05.0
last observation date used2023-04-29.0
computer nameMPCLINUX
JD of orbit computation2456966.904303
perihelion JD uncertainty (days)1.8372E-04
argument of perihelion uncertainty (°)2.1441E-04
ascending node uncertainty (°)2.0592E-04
inclination uncertainty (°)7.3509E-06
eccentricity uncertainty 4.3244E-08
perihelion distance uncertainty (AU)1.0116E-07
Minimum Orbit Intersection Distances (in AU)
for orbit epoch: 2460000.5, reference: E2023-HO8
Mercury1.70342
Venus1.30172
Earth1.03716
Mars0.3902
Jupiter2.40328
Saturn7.00502
Uranus16.2204
Neptune27.4213

Observations

232 total observations over interval: 1992 10 01.42345 – 2023 04 29.155028
These data are available for download (format description).

Date (UT) J2000 RA J2000 Dec Magn Location Ref
1992 10 01.42345 00 41 12.81 +04 46 58.5 20.7 V 691 – Steward Observatory, Kitt Peak-Spacewatch MPS 420464
1996 12 05.28605 04 35 07.85 +24 19 08.1 19.7 V 691 – Steward Observatory, Kitt Peak-Spacewatch MPS 417347
1996 12 05.29408 04 35 07.30 +24 19 06.6 19.7 V 691 – Steward Observatory, Kitt Peak-Spacewatch MPS 417347
1996 12 05.30338 04 35 06.63 +24 19 05.7 19.6 V 691 – Steward Observatory, Kitt Peak-Spacewatch MPS 417347
2001 02 16.25279 10 00 29.14 +13 37 54.5 20.1 V 691 – Steward Observatory, Kitt Peak-Spacewatch MPS 27077
2001 02 16.27416 10 00 27.80 +13 38 00.7 20.0 V 691 – Steward Observatory, Kitt Peak-Spacewatch MPS 27077
2001 02 16.29552 10 00 26.47 +13 38 06.4 20.0 V 691 – Steward Observatory, Kitt Peak-Spacewatch MPS 27077
2001 02 22.20990 09 54 36.58 +14 03 57.0 20.6 V 691 – Steward Observatory, Kitt Peak-Spacewatch MPS 27077
2001 02 22.23158 09 54 35.27 +14 04 02.7 20.4 V 691 – Steward Observatory, Kitt Peak-Spacewatch MPS 27077
2001 02 22.25306 09 54 33.97 +14 04 08.1 20.6 V 691 – Steward Observatory, Kitt Peak-Spacewatch MPS 27077
2001 02 27.28770 09 49 52.48 +14 23 46.1 20.8 V 691 – Steward Observatory, Kitt Peak-Spacewatch MPS 27077
2001 02 27.29524 09 49 52.04 +14 23 47.7 20.9 V 691 – Steward Observatory, Kitt Peak-Spacewatch MPS 27077
2001 02 27.30333 09 49 51.58 +14 23 49.8 20.9 V 691 – Steward Observatory, Kitt Peak-Spacewatch MPS 27077
2003 09 19.33912 01 58 58.01 +12 43 48.2 21.8 V 291 – LPL/Spacewatch II MPS 417347
2003 09 19.36284 01 58 57.33 +12 43 46.1 21.5 V 291 – LPL/Spacewatch II MPS 417347
2003 09 19.38700 01 58 56.69 +12 43 44.1 21.6 V 291 – LPL/Spacewatch II MPS 417347
2003 09 29.42801 01 53 13.59 +12 20 56.8 21.1 V 691 – Steward Observatory, Kitt Peak-Spacewatch MPS 417347
2003 09 29.45637 01 53 12.30 +12 20 51.5 21.5 V 691 – Steward Observatory, Kitt Peak-Spacewatch MPS 417347
2003 09 29.48367 01 53 11.10 +12 20 46.3 21.5 V 691 – Steward Observatory, Kitt Peak-Spacewatch MPS 417347
2005 03 11.39775 14 07 26.40 -13 27 02.4 21.3 R G96 – Mt. Lemmon Survey MPS 417347
2005 03 11.40556 14 07 26.23 -13 27 02.0 20.9 R G96 – Mt. Lemmon Survey MPS 417347
2005 03 11.41339 14 07 26.10 -13 27 01.6 21.1 R G96 – Mt. Lemmon Survey MPS 417347
2005 03 11.42131 14 07 25.94 -13 27 01.0 20.1 R G96 – Mt. Lemmon Survey MPS 417347
2007 12 18.30764 06 22 36.61 +25 47 17.3 20.0 V 691 – Steward Observatory, Kitt Peak-Spacewatch MPS 417347
2007 12 18.32532 06 22 35.46 +25 47 18.7 19.7 V 691 – Steward Observatory, Kitt Peak-Spacewatch MPS 417347
2007 12 18.34307 06 22 34.26 +25 47 19.9 19.9 V 691 – Steward Observatory, Kitt Peak-Spacewatch MPS 417347
2010 09 17.27051 23 23 56.54 -04 17 08.4 21.0 V G96 – Mt. Lemmon Survey MPS 417347
2010 09 17.27692 23 23 56.14 -04 17 10.2 21.0 V G96 – Mt. Lemmon Survey MPS 417347
2010 09 17.28332 23 23 55.75 -04 17 12.3 20.7 V G96 – Mt. Lemmon Survey MPS 417347
2010 09 17.28970 23 23 55.39 -04 17 14.2 20.7 V G96 – Mt. Lemmon Survey MPS 417347
2010 09 30.24044 23 12 12.16 -05 23 37.8 21.0 V G96 – Mt. Lemmon Survey MPS 417347
2010 09 30.24177 23 12 12.09 -05 23 38.0 21.0 V G96 – Mt. Lemmon Survey MPS 417347
2010 09 30.24304 23 12 12.02 -05 23 38.6 21.0 V G96 – Mt. Lemmon Survey MPS 417347
2010 09 30.24437 23 12 11.91 -05 23 38.9 20.9 V G96 – Mt. Lemmon Survey MPS 417347
2011 12 27.44469 11 25 27.01 +04 51 04.5 21.5 V G96 – Mt. Lemmon Survey MPS 420464
2011 12 27.45523 11 25 27.62 +04 51 02.4 22.1 V G96 – Mt. Lemmon Survey MPS 420464
2011 12 27.46576 11 25 28.09 +04 50 58.5 21.2 V G96 – Mt. Lemmon Survey MPS 420464
2011 12 27.47624 11 25 28.59 +04 50 55.2 21.9 V G96 – Mt. Lemmon Survey MPS 420464
2012 02 19.33140 11 26 47.71 +04 26 59.4 20.5 V 691 – Steward Observatory, Kitt Peak-Spacewatch MPS 414374
2012 02 19.34430 11 26 47.04 +04 27 02.9 20.6 V 691 – Steward Observatory, Kitt Peak-Spacewatch MPS 414374
2012 02 19.35720 11 26 46.40 +04 27 06.2 20.5 V 691 – Steward Observatory, Kitt Peak-Spacewatch MPS 414374
2012 02 25.21079 11 21 48.97 +04 54 47.1 20.6 V 691 – Steward Observatory, Kitt Peak-Spacewatch MPS 414374
2012 02 25.22872 11 21 47.98 +04 54 51.6 20.8 V 691 – Steward Observatory, Kitt Peak-Spacewatch MPS 414374
2012 02 25.24665 11 21 46.94 +04 54 57.4 20.5 V 691 – Steward Observatory, Kitt Peak-Spacewatch MPS 414374
2012 02 26.50766 11 20 38.031 +05 01 20.27 21.0 g F51 – Pan-STARRS 1, Haleakala MPS 414374
2012 02 26.53145 11 20 36.662 +05 01 27.59 20.4 r F51 – Pan-STARRS 1, Haleakala MPS 414374
2012 02 26.54191 11 20 36.051 +05 01 30.84 20.3 r F51 – Pan-STARRS 1, Haleakala MPS 414374
2012 02 29.23382 11 18 06.21 +05 15 21.6 20.3 V 691 – Steward Observatory, Kitt Peak-Spacewatch MPS 414374
2012 02 29.24975 11 18 05.26 +05 15 26.1 20.3 V 691 – Steward Observatory, Kitt Peak-Spacewatch MPS 414374
2012 02 29.26324 11 18 04.48 +05 15 30.6 20.1 V 691 – Steward Observatory, Kitt Peak-Spacewatch MPS 414374
2012 03 04.28697 11 14 13.38 +05 36 39.8 19.8 V G96 – Mt. Lemmon Survey MPS 414374
2012 03 04.29279 11 14 13.05 +05 36 41.4 19.6 V G96 – Mt. Lemmon Survey MPS 414374
2012 03 04.29862 11 14 12.66 +05 36 43.2 19.3 V G96 – Mt. Lemmon Survey MPS 414374
2012 03 04.30442 11 14 12.33 +05 36 45.3 19.3 V G96 – Mt. Lemmon Survey MPS 414374
2012 03 13.21232 11 05 40.88 +06 22 41.9 19.8 V G96 – Mt. Lemmon Survey MPS 416221
2012 03 13.22154 11 05 40.34 +06 22 44.8 19.8 V G96 – Mt. Lemmon Survey MPS 416221
2012 03 13.23091 11 05 39.76 +06 22 47.8 19.6 V G96 – Mt. Lemmon Survey MPS 416221
2012 03 13.24028 11 05 39.26 +06 22 50.4 19.6 V G96 – Mt. Lemmon Survey MPS 416221
2012 03 19.35551 11 00 12.821 +06 51 16.35 20.9 w F51 – Pan-STARRS 1, Haleakala MPS 417347
2012 03 19.36947 11 00 12.082 +06 51 19.97 20.9 w F51 – Pan-STARRS 1, Haleakala MPS 417347
2012 03 19.38344 11 00 11.333 +06 51 23.66 20.7 w F51 – Pan-STARRS 1, Haleakala MPS 417347
2012 03 21.23576 10 58 39.82 +06 59 08.9 20.5 V 703 – Catalina Sky Survey MPS 417347
2012 03 21.24594 10 58 39.25 +06 59 10.8 20.9 V 703 – Catalina Sky Survey MPS 417347
2012 03 21.25619 10 58 38.71 +06 59 13.4 20.4 V 703 – Catalina Sky Survey MPS 417347
2012 03 21.26635 10 58 38.17 +06 59 15.3 20.7 V 703 – Catalina Sky Survey MPS 417347
2014 09 30.44377 03 05 49.05 +18 30 27.6 20.8 V G96 – Mt. Lemmon Survey MPS 538734
2014 09 30.44937 03 05 48.95 +18 30 27.6 20.9 V G96 – Mt. Lemmon Survey MPS 538734
2014 09 30.45497 03 05 48.87 +18 30 27.2 20.7 V G96 – Mt. Lemmon Survey MPS 538734
2014 09 30.46056 03 05 48.81 +18 30 27.0 20.4 V G96 – Mt. Lemmon Survey MPS 538734
2014 10 18.20751 02 56 42.57 +18 09 43.3 20.5 V 691 – Steward Observatory, Kitt Peak-Spacewatch MPS 542085
2014 10 18.22785 02 56 41.60 +18 09 40.8 20.4 V 691 – Steward Observatory, Kitt Peak-Spacewatch MPS 542085
2014 10 18.24821 02 56 40.64 +18 09 38.4 20.8 V 691 – Steward Observatory, Kitt Peak-Spacewatch MPS 542085
2014 10 23.31351 02 52 25.50 +17 56 01.7 20.6 r G45 – Space Surveillance Telescope, Atom Site MPS 558327
2014 10 23.32597 02 52 24.84 +17 55 59.3 20.3 r G45 – Space Surveillance Telescope, Atom Site MPS 558327
2014 10 23.33830 02 52 24.15 +17 55 56.6 20.3 r G45 – Space Surveillance Telescope, Atom Site MPS 558327
2014 10 23.35006 02 52 23.40 +17 55 54.5 20.4 r G45 – Space Surveillance Telescope, Atom Site MPS 558327
2014 10 23.36155 02 52 22.78 +17 55 53.1 20.3 r G45 – Space Surveillance Telescope, Atom Site MPS 558327
2014 10 28.53817 02 47 29.754 +17 38 52.24 20.1 w F51 – Pan-STARRS 1, Haleakala MPS 544134
2014 10 28.55018 02 47 29.013 +17 38 49.70 20.1 w F51 – Pan-STARRS 1, Haleakala MPS 544134
2014 10 28.57430 02 47 27.537 +17 38 44.30 20.4 w F51 – Pan-STARRS 1, Haleakala MPS 544134
2014 10 30.21800 02 45 50.10 +17 32 44.5   691 – Steward Observatory, Kitt Peak-Spacewatch MPS 544134
2014 10 30.23835 02 45 48.81 +17 32 40.2   691 – Steward Observatory, Kitt Peak-Spacewatch MPS 544134
2014 10 30.25868 02 45 47.51 +17 32 35.7   691 – Steward Observatory, Kitt Peak-Spacewatch MPS 544134
2014 11 16.22411 02 28 30.96 +16 22 17.7 20.0 V G96 – Mt. Lemmon Survey MPS 547480
2014 11 16.22869 02 28 30.65 +16 22 16.6 19.6 V G96 – Mt. Lemmon Survey MPS 547480
2014 11 16.23326 02 28 30.42 +16 22 15.6 19.9 V G96 – Mt. Lemmon Survey MPS 547480
2014 11 16.23784 02 28 30.12 +16 22 14.4 19.6 V G96 – Mt. Lemmon Survey MPS 547480
